Regional Weather Roundup
Issued by NWS Newport/Morehead, NC

Current Version | Previous Version | Text Only | Print | Product List | Glossary Off
Versions: 1 2 3 4 5 6 7 8 9 10 11 12 13 14 15 16 17 18 19 20 21 22 23 24 25 26 27 28 29 30 31 32 33 34 35 36 37 38 39 40 41 42 43 44 45 46 47 48 49 50
000 ASUS42 KMHX 250513 RWRMHX WEATHER ROUNDUP FOR EASTERN NORTH CAROLINA NATIONAL WEATHER SERVICE NEWPORT/MOREHEAD CITY NC 100 AM EDT SUN JUN 25 2017 NOTE: "FAIR" INDICATES FEW OR NO CLOUDS BELOW 12,000 FEET WITH NO SIGNIFICANT WEATHER AND/OR OBSTRUCTIONS TO VISIBILITY NCZ015>017-031-032-045>047-102-103-250600- NORTH COAST CITY SKY/WX TMP DP RH WIND PRES REMARKS EDENTON CLOUDY 75 72 92 CALM 30.00R ELIZABETH CITY CLOUDY 73 73 100 SW7 29.98R KITTY HAWK DRIZZLE 74 74 100 CALM 29.96F MANTEO DRIZZLE 75 73 93 CALM 29.98F $$ NCZ045>047-081-094-103-104-250600- CENTRAL COAST CITY SKY/WX TMP DP RH WIND PRES REMARKS FRISCO CLOUDY 77 73 87 W13G22 30.02S $$ NCZ095-097-098-100-101-250600- SOUTHERN COAST CITY SKY/WX TMP DP RH WIND PRES REMARKS BEAUFORT LGT RAIN 77 77 100 SW12 30.02F CEDAR ISLAND NOT AVBL JACKSONVILLE NOT AVBL PINEY ISLAND CLOUDY N/A N/A N/A SW6 30.00F WILMINGTON LGT RAIN 77 76 96 SW3 30.04R FOG $$ NCZ011>013-027>030-043-044-078>080-089-090>093-098-250600- COASTAL PLAIN CITY SKY/WX TMP DP RH WIND PRES REMARKS AHOSKIE N/A 70 69 98 S3 30.00S CLINTON PTCLDY 72 72 100 CALM 30.03S ELIZABETHTOWN NOT AVBL GOLDSBORO CLOUDY 73 73 100 CALM 30.00F GREENVILLE CLOUDY 73 73 100 CALM 30.03S HAVELOCK RAIN 75 73 93 SW8 30.01F KENANSVILLE CLOUDY 73 72 94 CALM 30.03S KINSTON CLOUDY 74 74 98 CALM 30.02S NEW BERN CLOUDY 73 73 100 SW6 30.02S RICHLANDS CLOUDY 73 73 100 S6 30.03R ROCKY MOUNT CLOUDY 71 71 100 CALM 30.01F WASHINGTON CLOUDY N/A N/A N/A S5 30.01S WHITEVILLE CLOUDY 77 76 95 CALM 30.03R $$ AMZ130-135-150-152-154-156-158-170-250-252-270-ANZ085-086-088-633-658-670-250600- MARINE OBSERVATIONS STATION/POSITION TIME TEMP WIND PRES WAVE SWELL AIR SEA DIR/SP/G HT/PER HT/PER (UTC) (F) (DEG/KT/KT) (MB) (FT/S) (FT/S) CHESAPEAKE LIGHT NOT AVBL 64 E VA BEACH 0450 73 72 190/ 12/ 14 1014.5 5/ 7 3/ 7 DUCK 0448 74 63 170/ 4/ 5 1014.0 2 E DUCK NOT AVBL OREGON INLET 0448 220/ 9/ 10 N/A 13E OREGON INLT 0448 75 N/A 4/ 7 3/ 7 HATTERAS CG 0448 76 79 260/ 13/ 18 1016.2 DIAMOND BUOY 0450 80 80 260/ 19/ 23 1016.0 7/ 7 CAPE LOOKOUT 0500 75 260/ 14/ 16 1016.7 BEAUFORT LAB 0448 76 78 220/ 8/ 10 1015.9 30 SE NEW RVR IN 0408 80 80 240/ 16/ 21 1017.0 30 SE NEW RVR IN 0443 80 N/A 6/ 6 27 SE WRIGHTSVLE 0408 79 80 220/ 16/ 21 1016.6 5 SE WRIGHTSVLE 0408 78 80 260/ 6/ 12 1017.0 225 S CAPE HAT 0350 81 81 210/ 12/ 16 1020.3 4/ 5 2/ 8 41 SE CHARLESTON 0450 81 81 210/ 17/ 21 1017.4 4/ 5 2/ 8 $$

USA.gov is the U.S. government's official web portal to all federal, state and local government web resources and services.